Flag for Sudan Weather past 2 weeks in Khartoum, Sudan

Now
82 °F

Clear.


Feels Like: 80 °F
Forecast: 67 / 99 °F
Wind: 5 mph from North

Location: Khartoum Airport

Current Time: Jan 26, 2015 at 11:39:44 PM

Latest Report: Jan 26, 2015 at 11:00 PM


Visibility: 10 mi

Pressure: 29.89 "Hg

Humidity: 25%

Dew point: 43 °F

Location of KhartoumLocation

Historic Weather in Khartoum — Graph

°F

Khartoum temperature yesterday

Maximum temperature yesterday: 95 °F (at 3:00 PM)
Minimum temperature yesterday: 72 °F (at 7:00 AM)
Average temperature yesterday: 83 °F

Past Weeks' High & Low Weather Summary

 TemperatureHumidityPressure
High97 °F (Jan 26, 5:00 PM)44% (Jan 24, 8:00 AM)30.12 "Hg (Jan 24, 8:00 AM)
Low55 °F (Jan 16, 6:00 AM)12% (Jan 18, 3:00 PM)29.77 "Hg (Jan 24, 3:00 PM)
Average74 °F24%29.98 "Hg
* Reported Jan 13 3:00 PM — Jan 26 10:30 PM, Khartoum, Weather by CustomWeather, © 2014

Note: Actual official high and low records may vary slightly from our data, if they occured in-between our weather recording intervals... More about our weather records

Advertising

Khartoum weather history for previous 24 hours

 ConditionsComfort  
Time TempWeatherWind HumidityBarometerVisibility
10:30 PM
Jan 26
N/AClear.6 mphN/A29.89 "Hg10 mi
10:00 PM86 °FClear.5 mph22%29.89 "Hg10 mi
9:30 PMN/AClear.5 mphN/A29.86 "Hg10 mi
9:00 PM88 °FClear.6 mph24%29.86 "Hg10 mi
8:30 PMN/AClear.8 mphN/A29.86 "Hg10 mi
8:00 PM88 °FClear.8 mph19%29.83 "Hg10 mi
7:30 PMN/AClear.8 mphN/A29.83 "Hg10 mi
7:00 PM93 °FClear.7 mphN/A29.83 "Hg10 mi
6:30 PMN/ASunny.7 mphN/A29.83 "Hg10 mi
6:00 PM95 °FSunny.6 mph13%29.83 "Hg10 mi
5:30 PMN/ASunny.8 mphN/A29.83 "Hg10 mi
5:00 PM97 °FSunny.8 mph12%29.83 "Hg10 mi
4:30 PMN/ASunny.8 mphN/A29.83 "Hg10 mi
4:00 PM95 °FSunny.8 mph14%29.83 "Hg10 mi
3:30 PMN/ASunny.7 mphN/A29.83 "Hg10 mi
3:00 PM95 °FSunny.8 mph15%29.86 "Hg10 mi
2:30 PMN/ASunny.6 mphN/A29.86 "Hg10 mi
2:00 PM93 °FSunny.12 mph17%29.89 "Hg10 mi
1:30 PMN/ASunny.7 mphN/A29.89 "Hg10 mi
1:00 PM91 °FSunny.10 mph18%29.89 "Hg10 mi
12:30 PMN/ASunny.12 mphN/A29.89 "Hg10 mi
12:00 PM90 °FSunny.12 mph21%29.92 "Hg10 mi
11:30 AMN/ASunny.13 mphN/A29.92 "Hg10 mi
11:00 AM86 °FHaze.10 mph25%29.95 "Hg5 mi
10:30 AMN/AHaze.9 mphN/A29.95 "Hg5 mi
10:00 AM79 °FHaze.8 mph32%29.95 "Hg4 mi
9:30 AMN/AHaze.8 mphN/A29.95 "Hg4 mi
9:00 AM75 °FHaze.7 mph34%29.95 "Hg4 mi
8:30 AMN/AHaze.8 mphN/A29.92 "Hg5 mi
8:00 AM73 °FSunny.7 mph33%29.92 "Hg10 mi
7:30 AMN/ASunny.9 mphN/A29.89 "Hg10 mi
7:00 AM73 °FMild.9 mph33%N/AN/A
6:30 AMN/AClear.9 mphN/A29.89 "Hg10 mi
6:00 AM75 °FClear.9 mph31%29.89 "Hg10 mi
5:30 AMN/AClear.10 mphN/A29.89 "Hg10 mi
5:00 AM75 °FClear.10 mph31%29.86 "Hg10 mi
4:30 AMN/AClear.9 mphN/A29.86 "Hg10 mi
4:00 AM77 °FClear.10 mph28%29.86 "Hg10 mi
3:30 AMN/AClear.10 mphN/A29.86 "Hg10 mi
3:00 AM79 °FClear.10 mph26%29.86 "Hg10 mi
2:30 AMN/AClear.12 mphN/A29.86 "Hg10 mi
2:00 AM81 °FClear.13 mph21%29.86 "Hg10 mi
1:30 AMN/AClear.12 mphN/A29.86 "Hg10 mi
1:00 AM79 °FClear.7 mph26%29.89 "Hg10 mi
12:30 AMN/AClear.6 mphN/A29.89 "Hg10 mi
12:00 AM81 °FClear.6 mph28%29.89 "Hg10 mi
11:30 PM
Jan 25
N/AClear.5 mphN/A29.89 "Hg10 mi
11:00 PM81 °FClear.7 mph28%29.89 "Hg10 mi
Weather by CustomWeather, © 2014

See weather overviewHow to use our weather pages